Wind_Speed
64 62 60 58 58 58 61 62 61 63 66 67 67 67 67 65 64 67 64 57 58 61 59 63 71 74 76 73 67 67 68 68 70 69 66 64 62 62 57 55 54 53 53 51 52 55 55 52 50 48 46 45 43 41 41 42 42 44 46 48 50 50 51 51 51 51 52 52 51 50 49 48 48 47 46 47 46 46 48 49 51 52 52 50 48 48
62 59 56 55 57 59 60 62 62 64 66 65 66 67 67 67 65 66 64 57 57 61 60 61 66 70 71 69 66 69 68 68 71 71 68 66 64 61 57 56 55 54 54 51 50 52 53 52 50 49 48 47 49 49 46 44 43 44 45 48 50 51 52 52 53 54 54 54 53 52 51 50 50 49 49 50 52 53 53 52 53 54 54 53 51 50
59 55 55 56 59 59 60 61 61 63 65 65 66 66 67 68 65 65 65 60 57 59 61 60 62 67 68 65 62 65 68 70 73 71 69 68 65 61 56 55 54 53 52 50 47 47 49 52 52 52 52 52 53 51 46 44 43 45 46 48 49 51 52 52 54 55 56 56 56 54 53 52 52 53 53 53 55 57 58 56 55 54 54 53 52 51
57 54 56 59 60 60 59 59 59 62 65 64 65 66 66 67 65 63 66 62 56 56 59 59 62 66 64 59 57 61 68 71 72 71 70 68 63 59 55 51 51 49 48 50 51 51 53 55 56 56 56 54 50 49 47 45 44 45 46 48 49 50 50 51 53 55 56 57 57 56 55 54 54 54 55 56 57 58 59 59 56 54 53 51 50 50
57 56 59 60 60 60 59 58 59 61 63 63 64 65 64 66 64 65 68 64 58 57 60 62 64 66 61 55 54 59 66 69 71 72 69 65 60 57 55 52 53 52 51 53 56 57 57 57 57 55 55 53 50 49 48 47 46 46 47 48 49 50 50 51 52 54 55 56 56 56 55 55 54 55 56 56 57 57 58 57 56 55 54 52 50 50
57 58 60 59 59 59 59 59 59 60 62 62 63 62 64 66 66 69 70 65 61 60 60 63 65 64 59 55 55 57 61 66 69 68 64 62 59 56 54 54 56 57 56 58 57 57 58 58 58 57 55 54 52 50 48 48 47 47 48 49 50 51 52 52 53 54 54 54 54 54 54 55 55 55 55 56 56 57 57 56 55 55 54 53 52 51
58 58 58 58 58 58 59 59 57 59 62 60 60 61 65 68 66 70 71 64 63 61 59 63 64 62 59 56 56 54 57 62 63 64 61 58 58 56 54 53 55 57 58 58 57 56 57 57 58 58 57 55 53 51 50 49 49 49 49 50 50 51 52 53 53 53 53 53 53 53 54 54 54 54 54 55 55 55 55 55 54 54 54 53 52 51
58 58 58 57 57 57 58 57 56 59 62 59 59 62 66 67 65 71 73 65 62 60 59 62 62 61 60 57 56 54 56 58 57 60 58 53 54 55 53 52 53 55 56 56 54 54 56 56 57 56 55 54 53 52 52 51 51 50 50 50 51 51 52 52 52 52 52 51 52 52 52 52 53 53 53 53 52 52 53 53 52 52 52 52 51 50
60 60 58 57 56 57 57 57 58 61 61 58 60 63 66 68 68 73 73 67 64 61 60 62 60 61 60 57 57 57 56 55 54 56 53 49 51 51 50 51 53 55 56 54 53 54 56 57 56 54 52 52 52 52 52 53 53 52 52 51 52 52 53 53 52 52 51 51 51 51 51 51 52 52 51 51 50 49 50 50 51 50 50 51 51 51
63 61 60 59 58 57 57 60 62 61 59 58 62 65 68 70 70 72 72 69 67 62 60 61 59 59 59 57 58 57 55 53 52 51 49 47 47 48 49 52 55 58 58 57 56 56 58 58 57 56 54 54 54 54 54 55 55 54 54 53 53 53 53 53 52 51 51 50 50 50 51 51 52 51 51 50 48 46 46 48 50 50 50 50 50 51
63 62 63 60 58 59 59 61 62 60 59 62 66 68 69 70 70 72 73 72 70 62 57 59 59 59 59 59 58 55 54 53 49 46 46 46 46 48 51 54 57 60 60 59 58 56 57 57 56 55 55 55 55 56 56 56 55 55 54 54 53 52 52 52 51 51 50 50 50 51 51 51 51 51 50 49 47 45 44 46 48 50 51 50 50 49
64 63 63 60 59 59 59 59 61 61 61 65 68 68 68 70 71 73 75 73 68 60 56 59 61 59 60 60 56 54 56 52 45 44 46 46 47 50 51 54 57 58 58 57 55 54 54 55 55 54 53 54 55 56 56 55 54 53 52 52 52 52 51 51 50 50 51 50 51 51 51 51 51 51 50 48 46 45 44 45 47 49 51 51 50 49
64 62 63 62 59 58 58 58 62 62 62 67 69 68 69 71 72 73 73 70 63 57 55 58 60 60 61 61 57 56 55 47 41 44 47 47 49 51 52 54 56 57 57 57 55 53 53 54 54 53 53 53 54 55 55 54 52 52 52 52 52 52 51 51 51 50 51 51 50 51 51 51 51 51 50 48 47 45 44 44 46 47 49 50 51 51
64 62 64 62 56 55 58 60 62 60 61 67 69 68 68 69 69 69 69 65 60 57 56 58 61 61 62 61 57 54 50 42 42 47 50 50 52 53 52 53 55 56 56 56 55 53 53 53 54 53 53 53 54 54 54 53 52 52 52 51 51 51 51 51 51 51 51 51 50 51 51 51 51 51 50 49 48 46 45 44 44 45 47 48 50 51
64 63 61 57 51 53 58 60 58 57 59 64 66 67 66 66 65 64 64 62 59 58 58 60 64 63 61 60 55 53 49 46 48 50 51 52 51 51 51 51 52 53 54 55 54 53 53 54 54 53 52 53 54 54 53 52 52 52 52 51 51 51 52 51 51 51 51 51 51 51 51 52 51 50 50 50 49 47 45 44 43 44 45 47 49 50
61 60 57 54 52 54 58 57 57 58 60 62 66 67 64 62 62 62 62 62 61 61 61 63 65 61 59 59 55 52 49 49 52 52 51 52 51 50 51 50 51 52 54 55 55 54 55 55 55 54 53 54 55 54 53 52 51 51 51 51 51 52 52 52 52 52 52 51 51 51 51 51 51 50 50 50 49 48 46 44 44 44 45 45 47 49
57 57 56 55 54 54 55 57 59 59 60 62 65 62 57 59 62 62 62 62 63 62 61 64 65 59 58 58 53 50 49 50 52 53 52 52 53 53 53 52 52 53 55 56 57 56 56 56 57 56 55 56 56 55 53 52 51 51 51 51 52 52 52 52 52 52 52 52 52 51 51 51 51 51 50 50 49 48 47 46 45 45 45 45 45 47
56 58 58 54 52 54 55 59 61 59 61 64 60 54 56 61 64 63 61 61 62 61 60 63 63 59 57 56 52 50 50 50 51 53 54 53 53 54 54 53 53 54 56 57 59 58 56 57 58 57 57 58 58 56 55 53 52 51 51 51 52 52 52 53 53 53 52 52 52 52 51 51 51 51 50 50 50 49 49 47 46 46 45 44 43 43
59 61 59 53 52 56 59 63 63 59 61 62 57 55 61 63 62 61 60 61 61 59 59 60 59 57 56 55 54 53 53 52 51 52 54 54 54 53 52 53 54 56 59 60 61 60 58 58 59 59 58 58 59 58 56 54 53 52 52 53 53 53 53 53 53 53 52 52 53 52 52 52 51 51 51 50 50 50 50 49 47 46 45 44 43 41
59 61 58 53 56 62 64 65 63 58 58 60 59 60 62 61 61 61 60 61 60 57 56 55 53 54 54 54 55 55 55 55 53 52 53 55 56 55 53 54 57 59 60 61 61 61 59 58 59 60 60 60 59 58 57 56 55 54 54 54 54 54 54 54 54 53 53 53 53 53 52 52 51 51 51 50 50 51 50 49 48 47 46 44 43 42
58 60 58 54 59 63 60 58 58 55 56 58 59 60 60 60 62 63 63 61 59 57 56 54 53 53 53 52 53 55 56 56 55 53 53 54 55 56 56 58 60 60 60 60 59 59 59 58 58 60 62 62 61 60 58 57 56 55 54 54 55 55 55 55 54 54 54 54 53 53 52 52 51 51 51 51 51 51 50 48 48 48 47 45 43 42
58 60 58 55 58 57 51 53 59 59 58 59 59 59 59 59 61 62 63 62 58 57 55 54 55 54 52 50 51 53 55 57 58 58 57 56 56 56 57 58 60 60 59 60 59 59 59 58 58 58 60 63 63 62 61 59 58 56 56 56 56 56 56 55 54 54 54 54 53 53 52 52 52 52 51 51 51 51 49 48 48 48 47 45 43 42
57 58 57 54 54 51 47 53 63 63 62 63 62 59 60 61 62 63 63 61 58 56 54 54 54 52 50 49 48 51 54 56 58 59 59 59 58 58 59 58 58 57 57 57 57 57 57 58 57 56 57 60 63 63 62 61 59 58 57 58 57 56 56 55 54 54 54 54 54 53 52 52 52 52 52 52 51 51 49 48 48 48 48 45 43 42
58 57 56 54 53 52 50 55 62 66 67 66 63 63 64 63 62 63 63 61 59 57 57 56 53 50 48 45 43 47 53 54 55 55 57 58 59 59 60 60 59 58 57 57 56 55 55 56 56 55 54 57 62 63 63 61 60 58 58 58 57 57 56 55 54 54 54 54 53 53 53 53 53 53 52 52 51 51 49 48 47 48 48 45 42 41
57 56 55 54 54 54 53 53 55 58 61 64 64 66 66 62 63 66 65 63 62 60 58 57 54 51 49 47 45 47 52 54 53 52 52 54 56 57 58 59 60 59 58 58 58 57 57 57 57 55 54 55 59 62 62 61 59 58 58 58 58 57 56 55 54 54 54 54 54 53 53 53 53 53 52 52 51 51 49 47 46 47 48 45 42 39
56 55 55 54 53 51 48 45 44 45 52 61 65 67 68 66 67 68 66 63 60 57 56 57 54 50 48 49 51 51 51 53 54 53 51 50 51 52 54 56 57 57 58 58 57 57 57 58 57 55 54 55 57 60 61 60 58 58 58 58 58 57 56 55 54 54 55 55 54 54 54 54 54 53 52 52 51 51 50 47 46 46 47 45 41 38
55 54 53 52 50 48 45 44 44 45 50 56 60 65 69 70 71 69 65 60 57 56 57 57 53 49 47 50 54 54 53 54 54 54 53 52 51 52 55 57 58 59 59 59 58 57 57 56 55 54 54 53 54 56 58 58 58 58 58 58 57 57 56 55 54 54 55 55 55 56 55 54 54 53 53 52 51 52 50 47 45 45 45 45 41 37
54 53 51 49 46 45 45 45 46 47 48 49 54 59 63 66 69 68 63 59 58 60 61 57 53 50 49 51 53 53 54 55 55 55 54 54 55 56 59 61 62 62 63 62 60 59 59 57 55 53 52 52 52 54 56 57 58 58 58 58 57 56 56 55 55 54 55 55 56 56 56 55 54 54 53 52 52 52 50 47 45 44 43 43 41 37
53 51 49 47 45 44 44 45 46 46 47 49 53 57 58 58 61 62 61 61 64 65 62 57 53 52 52 53 52 52 53 54 55 56 56 56 58 59 62 65 65 64 63 62 62 62 61 58 55 53 51 51 52 54 56 57 58 59 58 57 56 56 56 55 55 54 55 55 57 57 56 56 55 54 53 53 52 52 51 48 46 44 42 42 41 38
53 50 47 46 46 45 44 45 45 45 46 49 53 57 58 57 59 62 64 66 67 64 58 55 53 52 54 56 55 54 53 53 56 57 57 58 60 62 64 66 66 65 63 63 64 64 61 59 57 55 54 53 53 54 55 57 58 59 58 57 56 56 56 55 55 55 55 56 57 57 57 57 56 55 54 53 53 53 52 49 47 45 41 40 40 38
52 49 46 46 46 46 47 47 46 46 48 50 53 56 59 60 63 65 65 64 63 59 56 55 54 52 53 57 60 58 55 53 56 59 61 62 62 63 64 64 64 64 64 64 64 62 60 59 59 58 56 55 54 55 56 57 58 58 58 57 56 56 56 55 55 56 56 57 58 58 58 58 57 56 55 54 53 53 53 51 48 46 42 39 38 38
51 48 47 48 46 46 46 46 45 46 48 49 50 53 57 61 64 63 60 59 57 56 55 55 54 53 54 57 62 63 60 57 58 61 64 65 66 66 66 65 64 64 64 63 62 61 59 58 58 58 57 56 56 57 57 57 57 58 58 58 57 57 56 56 56 57 58 58 58 59 59 59 58 57 56 55 54 53 54 52 50 48 44 39 37 37
51 49 49 48 47 47 46 43 42 44 45 45 45 47 50 55 56 55 54 54 55 55 55 55 55 55 56 59 63 65 64 63 62 64 65 65 66 67 67 66 66 66 64 63 62 60 59 58 58 59 59 59 58 57 57 57 57 57 58 59 58 57 56 57 58 58 59 59 59 60 60 60 59 59 57 56 55 54 54 54 52 50 46 41 37 36
50 49 49 48 48 47 44 41 41 42 42 41 41 42 46 49 49 50 52 54 55 55 55 56 56 56 56 59 62 64 65 64 64 64 64 65 66 67 67 68 67 66 64 63 62 61 60 59 59 60 61 60 59 58 58 57 57 57 58 59 59 58 57 58 59 59 60 60 61 61 61 61 60 60 59 57 56 55 55 55 54 51 48 44 39 35
48 48 48 48 48 47 43 41 42 42 40 38 38 40 43 45 47 50 53 54 54 54 54 54 55 55 55 56 58 60 61 62 63 63 63 64 65 65 65 64 63 63 63 62 62 61 60 60 60 61 61 60 60 59 58 58 58 58 58 58 59 59 59 59 60 60 61 62 62 62 62 62 62 61 60 59 58 57 57 57 56 53 49 46 41 36
47 47 47 47 47 47 45 43 43 42 41 39 39 39 40 44 48 50 49 50 51 51 51 51 52 53 53 54 55 56 57 58 60 60 60 60 61 61 61 60 60 60 60 60 61 61 61 61 60 61 61 60 59 59 59 59 59 59 59 59 59 59 60 60 61 62 62 63 64 64 64 64 63 63 62 61 60 60 59 58 57 55 51 47 43 38
46 47 47 47 47 47 47 45 43 43 42 42 43 43 43 44 47 46 44 44 45 47 48 49 50 51 52 52 53 54 55 54 55 56 57 58 59 60 61 61 60 59 59 59 60 60 60 60 60 61 61 60 59 59 59 60 60 60 60 60 60 61 61 61 62 63 64 65 65 65 65 65 65 64 64 64 63 62 60 60 59 57 53 49 46 41
43 45 46 47 48 49 50 49 46 44 43 44 46 48 47 47 46 47 46 45 45 46 47 48 48 50 50 51 51 52 52 52 52 54 56 58 59 60 61 61 60 59 59 60 60 60 61 61 61 61 61 60 60 60 60 60 61 61 62 61 62 62 62 63 64 65 66 66 66 67 67 67 67 66 66 66 65 64 62 61 60 59 56 51 47 44
41 42 43 45 47 48 49 50 49 46 44 44 45 47 48 49 48 48 49 48 47 47 47 47 48 48 49 49 49 50 52 53 55 57 58 59 60 61 61 60 59 59 59 60 61 61 62 62 62 61 61 61 61 61 60 61 62 63 63 63 63 64 64 64 66 66 67 68 68 68 69 68 68 68 68 68 67 66 65 63 62 60 57 53 49 46
43 43 43 44 47 48 48 49 49 48 47 47 46 46 47 47 47 47 47 47 48 48 48 48 48 49 50 52 52 53 55 58 59 60 60 61 62 63 63 61 61 60 60 61 62 62 63 63 63 62 62 63 62 62 61 62 63 64 64 64 65 66 66 66 67 68 68 69 70 70 70 70 70 70 69 69 69 68 67 66 64 61 59 55 50 47
44 45 45 46 47 48 48 49 49 50 51 50 47 46 46 47 46 45 45 46 47 48 48 49 50 51 53 56 58 59 60 61 62 62 63 64 65 65 64 64 64 63 63 63 63 63 63 64 63 63 64 63 63 63 62 63 64 65 65 65 66 67 67 67 68 69 70 70 71 72 72 72 72 71 71 70 70 69 69 68 66 63 60 56 52 47
44 45 46 47 48 49 50 50 50 51 52 51 48 47 47 46 44 43 44 46 48 48 49 50 51 53 55 58 61 63 63 63 64 65 65 65 65 64 64 63 63 63 63 63 63 64 64 64 65 64 64 63 63 63 64 64 65 66 66 67 68 69 69 69 69 71 72 72 73 73 73 73 73 72 72 71 70 70 70 70 69 65 61 58 53 48
43 45 47 49 50 50 51 51 52 53 52 51 50 48 46 45 44 45 46 48 49 51 52 53 55 56 58 60 62 63 64 64 64 65 65 64 64 63 63 63 62 62 62 63 63 64 65 65 65 65 64 64 64 64 64 65 65 66 67 67 68 69 70 70 71 72 73 74 74 75 74 74 74 74 73 73 72 72 72 71 70 67 64 59 53 48
44 46 48 49 50 51 52 52 53 53 52 51 50 48 46 46 47 48 49 50 51 52 53 54 56 58 59 60 61 63 63 64 64 64 64 63 63 62 63 63 63 62 62 62 62 63 64 65 65 65 65 64 64 63 64 64 65 66 67 67 68 69 70 71 72 72 74 74 75 75 75 75 75 75 75 74 74 73 73 72 71 69 65 59 52 47
47 47 48 49 50 51 51 51 51 51 50 50 49 48 48 49 50 51 52 53 53 53 54 55 56 57 58 59 60 61 62 62 63 63 63 63 62 63 63 63 62 62 61 61 61 62 62 63 63 64 64 64 63 63 63 64 65 66 66 67 68 69 70 72 72 73 74 75 75 76 76 76 76 76 76 76 75 75 74 72 71 68 63 58 52 47
47 47 48 49 50 50 49 49 50 50 50 50 50 50 50 51 53 54 55 55 55 56 56 57 58 59 59 60 61 62 63 63 64 64 63 63 63 63 62 61 60 59 59 59 59 59 59 60 61 62 63 63 63 64 64 64 65 66 67 68 69 70 71 72 73 74 75 76 76 77 78 78 78 78 78 78 77 76 74 72 68 64 60 56 52 48
47 48 49 49 49 49 49 50 51 51 51 51 51 52 53 53 55 55 56 57 57 57 58 58 59 60 61 62 63 64 64 65 65 65 64 63 62 60 58 57 56 56 56 56 56 56 57 58 60 61 62 63 63 64 65 66 67 68 69 70 71 72 73 74 75 76 76 77 78 79 79 80 80 80 80 79 78 76 73 69 65 61 58 56 54 50
49 49 50 51 51 51 52 53 53 53 53 53 53 53 54 54 55 56 56 58 58 59 59 60 61 61 61 62 63 63 64 64 64 63 61 58 56 55 54 54 54 54 55 55 55 55 56 57 59 60 61 62 63 64 65 66 67 69 70 71 72 73 74 75 76 77 77 78 79 80 80 81 81 81 80 79 76 72 69 65 62 59 57 56 55 54
51 51 51 52 52 52 52 52 52 52 52 53 54 54 55 56 56 57 58 58 59 60 60 61 61 61 61 61 62 62 61 60 58 56 55 53 53 53 53 53 54 54 55 55 55 56 57 58 58 60 61 62 63 64 65 67 68 69 71 72 73 74 75 76 77 78 79 80 80 81 81 81 80 79 78 75 72 69 67 64 62 59 58 57 57 57
51 51 52 51 51 51 52 52 52 53 53 54 55 55 56 57 57 57 58 59 59 60 60 61 61 61 60 60 58 57 55 54 54 53 53 53 53 53 53 53 54 55 55 56 56 57 58 59 60 61 62 63 64 65 67 68 69 71 72 73 74 76 77 78 79 80 81 81 81 81 80 78 76 74 72 71 69 68 66 66 64 62 61 60 60 59
52 53 53 53 52 53 53 54 54 55 55 55 56 56 57 57 57 58 58 59 59 59 59 59 58 58 56 55 54 53 53 53 53 54 54 54 54 53 54 54 55 55 56 57 58 59 60 61 62 63 63 64 66 67 68 70 71 72 74 75 76 77 79 80 80 80 80 79 78 76 75 73 71 69 69 69 68 68 67 66 66 64 62 60 59 58
Wind_Direction
239 239 239 239 239 239 238 238 236 237 238 239 239 240 241 241 240 242 239 233 237 240 238 237 239 240 241 241 240 241 243 245 247 248 248 248 248 249 248 248 248 248 250 254 256 253 253 254 254 254 258 258 257 258 259 259 257 255 255 255 256 257 257 258 259 260 261 261 262 262 264 268 270 272 275 277 278 279 281 282 282 282 282 282 281 280
238 238 239 239 238 237 237 236 235 236 237 237 238 238 239 240 240 242 241 234 234 239 239 238 241 241 242 241 239 240 242 244 245 246 247 247 247 248 248 249 250 251 252 253 252 250 249 250 252 255 258 258 260 262 261 256 253 253 255 256 257 257 257 258 260 261 261 261 263 266 268 269 272 274 277 280 280 280 281 281 281 280 279 278 278 279
237 238 238 238 238 237 236 236 235 236 237 236 236 237 237 239 239 241 242 236 231 237 240 239 241 242 241 241 240 240 241 242 245 246 247 248 247 249 250 251 253 253 250 246 245 246 248 252 257 260 261 261 262 261 259 255 252 253 254 256 258 258 258 259 260 261 262 263 265 267 269 271 272 275 279 282 284 283 283 283 282 280 279 277 276 276
237 237 238 238 237 237 235 235 235 236 236 236 235 236 236 238 238 239 242 238 232 235 239 239 240 242 241 241 241 239 239 241 244 245 246 247 248 248 249 250 250 248 245 242 244 250 253 256 259 261 260 260 259 259 258 256 253 252 252 254 257 259 260 260 261 262 263 264 265 267 269 271 273 275 279 282 285 285 285 284 283 281 280 277 276 275
235 235 237 237 236 236 234 233 234 235 236 235 235 235 236 236 236 236 239 238 233 231 235 237 238 241 241 240 239 239 239 240 243 245 246 248 249 248 248 248 246 246 246 247 249 252 254 255 256 256 254 255 257 258 258 258 256 253 253 253 255 257 258 260 261 263 264 265 267 268 270 272 275 278 281 283 284 285 284 283 281 280 279 277 275 274
235 235 237 237 237 236 235 233 233 234 235 234 235 235 235 234 233 235 237 237 235 232 234 238 239 241 242 240 239 239 240 240 243 246 247 248 248 247 247 248 249 249 249 250 251 252 253 254 253 252 252 254 256 257 257 258 257 256 255 255 256 257 258 259 261 262 264 265 267 269 271 274 278 281 283 284 285 284 283 281 279 277 276 275 273 273
236 237 238 238 238 237 236 234 233 235 236 234 234 234 234 234 233 236 238 236 236 235 234 238 240 241 241 240 240 240 241 242 244 246 247 248 249 248 247 247 249 251 249 249 249 250 252 253 253 252 253 254 254 255 257 257 257 257 258 257 258 259 259 261 262 263 264 266 268 271 273 276 278 281 283 284 284 283 281 279 277 274 273 272 272 270
238 239 239 239 238 237 236 236 234 237 237 233 234 233 234 234 232 234 237 234 234 235 233 237 239 240 240 239 239 238 239 241 242 245 247 247 248 249 248 248 248 248 247 248 248 248 249 250 252 252 253 254 254 255 256 257 257 258 259 259 260 261 262 263 263 264 266 268 271 273 274 277 280 281 283 284 283 282 279 277 275 272 271 271 270 268
239 239 239 238 239 237 236 235 234 235 236 234 233 233 233 233 231 233 235 233 231 231 232 235 237 240 241 240 240 238 238 240 241 244 247 247 247 247 246 246 244 244 245 247 248 248 249 250 251 252 253 254 254 255 255 256 257 258 259 260 261 262 263 264 265 267 269 271 273 275 277 279 282 284 285 285 284 283 280 278 275 271 269 269 269 267
238 238 238 237 237 237 234 234 234 234 236 234 233 232 231 231 231 233 234 233 231 229 231 235 236 239 241 240 240 240 240 241 242 245 248 248 248 247 245 243 243 244 246 248 249 250 251 251 251 252 253 254 255 255 255 256 257 258 259 261 262 262 263 265 267 269 271 273 275 277 279 282 285 287 288 288 286 284 282 280 277 273 270 269 268 267
238 238 239 237 237 238 235 234 235 234 234 233 231 230 230 231 231 232 233 232 231 228 229 235 236 237 239 239 240 241 241 241 242 245 247 247 246 245 243 243 244 247 249 250 251 250 251 251 252 253 253 254 255 255 256 257 257 258 259 261 262 263 264 266 268 270 272 274 276 279 282 285 288 290 291 291 290 288 285 281 278 275 272 269 267 266
240 240 240 240 239 240 238 236 236 234 233 232 229 228 229 230 230 230 232 233 232 229 228 234 237 236 238 239 238 239 241 241 240 242 244 244 243 242 241 242 245 248 250 251 251 250 249 250 251 251 252 252 253 254 255 256 257 258 259 261 262 264 266 267 269 271 273 275 278 281 284 287 290 292 293 294 294 292 289 285 280 276 273 271 268 265
242 241 241 241 239 241 240 238 237 235 232 230 227 226 227 228 229 231 233 234 233 231 229 234 237 237 238 240 238 239 242 243 240 240 241 241 241 241 241 243 245 247 249 251 250 248 247 249 250 250 250 250 252 253 255 256 257 258 259 261 263 265 267 268 270 272 274 277 280 283 286 288 291 293 294 296 296 295 291 287 283 279 276 273 270 265
241 240 240 241 240 241 241 239 239 237 232 228 226 225 226 229 231 232 235 235 233 231 231 234 237 237 238 240 240 241 244 245 241 237 238 239 240 242 243 244 246 247 249 251 250 248 245 247 249 249 249 250 251 253 255 257 258 259 261 263 264 266 268 269 271 273 275 278 281 284 287 290 292 294 296 298 297 295 292 288 284 280 277 273 270 267
238 238 239 240 240 241 242 241 241 235 227 225 225 225 225 228 231 233 234 235 233 231 231 233 235 235 238 240 240 241 240 239 237 235 234 236 239 242 244 245 247 248 249 251 251 248 244 245 248 248 249 250 251 254 256 258 260 261 262 264 265 267 268 270 272 274 276 279 282 285 288 291 293 295 297 298 297 296 292 289 285 281 277 273 269 266
237 238 238 237 235 238 242 241 235 226 219 220 222 223 222 225 229 231 231 232 232 230 231 234 235 235 238 241 240 240 238 235 236 237 236 236 238 240 242 245 247 248 249 250 250 248 244 244 247 248 249 250 252 254 257 260 261 262 263 265 266 267 268 270 272 274 277 280 283 286 288 291 294 295 296 297 298 297 295 292 289 286 282 277 272 266
237 238 237 235 233 235 236 233 227 219 215 218 221 221 222 224 228 229 230 231 232 231 232 235 236 235 236 239 240 239 238 236 236 238 239 239 239 240 242 244 245 247 248 249 250 250 246 244 246 248 249 250 252 254 257 260 262 263 264 266 267 268 269 270 273 275 278 281 283 286 288 291 293 294 296 298 299 299 298 297 294 291 287 281 276 271
233 235 234 233 233 231 226 223 221 215 213 217 219 218 221 223 226 228 229 231 232 232 233 235 236 235 235 237 238 237 237 237 237 237 238 238 239 241 243 244 245 246 247 249 251 251 249 246 245 247 249 250 252 254 257 260 262 264 265 267 268 269 269 271 273 275 278 281 283 285 288 290 292 295 297 299 301 301 301 300 297 294 291 286 281 276
231 233 231 227 224 221 215 216 218 214 214 216 214 214 219 223 227 229 229 231 232 232 234 236 237 237 236 235 236 234 233 234 235 236 237 237 237 239 242 244 245 246 247 248 250 252 251 248 246 246 248 250 252 254 257 260 262 265 266 267 268 269 270 272 273 275 278 280 283 285 288 291 293 296 298 301 302 303 302 302 300 299 296 293 288 283
230 231 230 222 216 214 211 213 216 215 215 216 213 213 217 221 225 229 230 232 233 233 235 237 237 237 236 233 233 233 232 232 233 234 235 236 237 237 239 241 243 245 248 249 251 253 253 252 249 247 247 249 252 254 256 259 261 264 266 267 268 269 270 271 273 275 278 280 283 285 288 291 294 296 298 301 302 303 303 303 303 303 300 297 293 289
226 226 224 217 214 215 214 215 217 216 215 216 215 216 218 220 223 226 229 230 231 232 233 233 233 232 232 231 232 233 232 232 233 234 235 236 237 238 240 243 245 247 250 252 254 255 255 255 253 250 248 249 251 253 255 258 260 263 266 267 268 270 270 271 273 275 278 280 283 286 289 292 294 296 298 300 301 302 303 305 306 305 303 299 295 292
221 220 218 212 212 217 216 215 215 213 212 213 214 216 219 223 226 228 230 230 230 232 232 232 232 230 228 227 229 232 232 232 233 235 236 237 238 239 241 244 247 249 251 253 255 257 257 257 256 254 251 250 251 253 255 257 260 263 265 266 268 269 270 272 274 276 278 281 283 286 289 292 294 296 297 299 301 303 305 306 307 307 306 302 297 294
215 216 214 209 210 215 214 213 214 212 211 212 212 212 215 220 224 228 230 230 230 232 233 233 233 231 228 226 229 232 232 233 235 235 237 238 239 241 243 246 249 251 252 254 255 257 257 257 257 257 254 252 251 253 255 257 259 262 264 266 268 269 270 272 274 276 278 281 284 286 289 292 293 295 297 298 301 304 306 307 308 309 307 302 299 296
210 212 211 208 208 211 210 211 213 212 212 213 213 212 213 215 220 225 228 228 228 229 230 232 230 228 225 223 227 234 234 233 236 238 239 240 241 242 244 247 250 252 253 254 255 258 258 257 258 259 258 255 253 253 254 256 259 262 264 266 268 269 271 272 274 276 279 281 284 286 288 291 292 294 297 299 302 305 307 308 309 310 309 304 299 297
208 208 209 209 210 212 212 213 215 216 216 216 216 216 216 216 219 224 226 226 225 225 227 229 227 224 221 216 215 227 234 233 234 236 238 240 242 243 246 248 250 252 253 254 255 258 259 259 259 260 260 257 254 253 254 256 259 262 264 266 268 270 271 272 274 276 279 281 283 285 288 290 292 295 297 299 302 305 307 309 310 311 310 304 299 296
209 209 210 211 212 215 216 218 221 221 220 219 219 220 221 219 222 226 227 227 227 227 229 231 228 223 221 217 213 217 228 234 235 237 239 242 244 246 248 251 253 254 256 256 258 259 260 260 260 260 260 259 255 254 254 256 259 262 264 265 267 269 270 272 274 276 278 281 283 285 287 290 292 295 297 300 302 305 308 309 310 312 311 305 300 296
210 211 212 214 214 215 215 217 219 220 219 220 220 222 224 224 226 229 230 229 229 229 231 232 230 224 220 218 215 215 223 231 236 240 241 243 246 248 250 252 253 255 257 259 261 261 261 261 261 261 260 259 256 255 255 257 259 261 263 265 267 268 270 272 274 276 278 281 283 285 288 290 292 295 297 300 302 304 308 309 310 312 311 305 299 296
212 212 214 216 217 217 217 217 219 220 221 222 222 223 225 226 228 230 230 230 230 230 230 230 228 225 220 218 217 218 222 229 234 238 241 243 244 246 248 250 252 254 256 258 260 261 262 263 262 261 261 260 257 256 257 258 259 261 263 265 266 268 270 272 274 276 278 281 283 285 288 290 292 295 297 299 301 304 307 309 309 311 312 306 299 295
214 214 214 217 219 221 222 222 223 224 224 223 223 224 225 224 227 228 226 226 228 228 228 227 226 225 221 218 218 220 225 229 232 235 238 241 243 244 246 248 251 253 255 257 260 261 262 262 261 261 262 260 258 257 257 259 260 261 262 264 266 268 270 273 275 276 278 281 283 285 288 290 292 295 298 299 301 304 306 308 309 310 312 308 300 294
217 217 215 218 222 223 225 227 227 226 225 224 223 225 225 222 223 224 222 222 226 227 227 226 225 225 222 219 219 222 226 230 232 234 236 239 240 242 243 246 248 251 254 257 260 261 261 260 260 261 261 260 258 257 258 259 260 262 263 265 266 268 270 273 274 276 278 280 283 285 288 290 292 295 297 299 301 303 306 308 309 309 311 309 301 294
219 219 218 220 223 225 227 228 228 226 224 223 222 224 223 220 220 221 220 221 225 228 228 227 225 224 223 220 221 223 226 228 230 232 235 237 238 240 242 244 248 252 255 258 259 259 260 260 260 260 260 259 257 257 258 259 260 262 264 265 267 268 270 272 274 276 278 280 282 285 287 289 292 294 297 299 301 303 305 307 308 308 309 309 302 294
220 220 221 222 224 225 225 225 227 226 224 223 223 223 222 220 219 220 220 222 225 227 229 230 227 226 224 222 223 225 226 227 228 230 233 236 238 241 244 248 252 254 256 258 258 259 260 260 259 258 258 258 257 257 258 259 261 263 265 266 267 269 270 272 274 275 277 280 282 285 287 289 291 294 296 299 301 302 304 306 307 307 307 308 302 293
221 221 221 221 221 222 220 217 221 225 224 223 223 223 222 222 221 221 222 224 227 228 229 231 230 228 227 226 226 226 228 229 229 230 233 236 240 244 248 251 254 256 257 257 258 258 259 259 258 257 256 257 257 258 259 260 262 263 265 266 267 269 270 271 273 275 278 280 282 284 286 289 291 293 296 299 300 301 303 304 305 306 306 306 302 293
217 218 218 215 213 215 213 210 215 222 223 221 219 219 219 219 220 222 224 226 228 229 230 231 231 230 229 230 230 230 231 233 234 236 238 240 243 247 250 254 256 257 257 257 257 257 258 258 257 256 256 256 257 258 259 260 262 263 264 266 267 269 270 271 273 276 278 280 282 284 286 288 291 293 295 298 299 300 301 302 304 305 305 305 302 294
209 209 210 208 205 205 203 203 211 218 219 216 215 217 217 217 218 220 223 225 227 228 230 231 232 232 231 232 234 235 235 237 238 240 242 244 246 249 252 255 256 257 257 257 257 257 257 257 256 256 256 257 257 258 259 260 261 262 263 265 267 269 270 272 274 276 278 279 281 283 286 288 290 293 295 297 298 299 300 301 302 303 303 303 301 294
202 201 202 202 201 199 198 203 211 216 216 213 212 214 215 216 218 220 222 225 227 229 231 232 233 235 235 235 236 238 239 240 241 242 245 247 249 251 254 256 257 258 258 258 258 258 257 257 257 256 257 257 258 259 260 261 261 262 263 264 266 268 270 272 273 275 277 279 281 283 285 287 290 292 294 296 297 298 299 300 301 301 301 301 300 295
199 197 196 195 196 197 198 204 211 216 216 214 212 212 213 215 218 220 222 225 227 228 231 232 233 235 235 235 236 237 239 241 243 245 247 249 251 253 255 257 258 259 259 258 258 258 258 258 258 257 257 258 259 260 261 261 262 263 263 264 265 267 269 271 272 274 276 278 280 283 285 287 289 291 293 295 296 296 297 298 299 300 300 299 299 295
198 196 194 192 195 198 200 204 210 215 217 217 215 216 216 217 219 220 221 223 226 227 229 230 232 233 233 235 237 239 240 242 246 248 249 250 252 253 255 256 258 258 258 258 258 258 258 258 258 258 258 259 259 260 261 262 262 263 263 264 265 267 268 270 272 274 276 278 280 282 285 287 289 291 292 294 294 295 295 297 297 298 298 298 297 294
195 195 194 194 197 201 204 207 210 214 217 219 218 219 220 220 221 222 223 225 227 229 229 230 231 232 233 235 239 242 244 245 247 248 249 251 252 254 255 256 257 258 258 258 258 258 258 258 258 259 259 259 259 260 260 261 262 263 264 265 266 267 268 270 272 274 276 278 280 282 284 286 288 290 291 292 293 293 294 295 296 296 297 296 295 293
191 194 197 199 202 205 207 210 213 216 219 220 220 220 221 221 222 224 225 227 229 230 231 231 232 233 233 233 237 240 242 243 245 247 248 250 252 253 255 256 257 258 258 258 257 258 259 259 259 259 259 259 260 260 261 262 263 263 264 265 266 268 269 271 272 274 276 278 280 282 284 285 287 288 290 291 292 292 293 294 294 294 295 294 293 291
191 196 200 204 206 208 210 212 215 218 221 222 222 222 222 222 222 222 225 228 230 231 232 233 234 235 234 233 234 237 240 242 244 246 248 249 251 253 255 257 258 258 258 258 258 258 258 259 260 260 260 261 261 261 262 263 264 265 265 266 267 269 270 272 274 275 277 278 280 281 283 284 286 287 289 290 291 291 292 293 293 293 293 293 292 288
194 198 202 207 209 210 212 214 216 218 221 223 223 223 223 222 221 221 225 228 230 230 232 233 234 235 235 235 235 238 240 243 245 247 249 251 253 255 256 257 259 259 260 259 259 258 259 259 260 261 261 262 263 263 263 264 265 266 267 268 269 271 272 273 274 276 277 278 279 281 282 284 285 287 288 289 289 290 291 292 292 292 292 292 290 284
198 201 205 209 211 212 214 215 217 219 221 222 223 223 224 224 224 224 226 228 229 229 231 232 233 235 236 237 238 240 243 245 247 249 251 253 255 256 257 258 259 260 261 261 261 260 260 260 260 261 262 263 264 265 265 266 267 268 269 270 271 272 273 274 274 276 277 278 280 281 282 284 285 286 287 288 288 289 290 291 291 291 291 290 287 280
203 205 208 210 212 213 215 217 219 220 220 221 222 223 223 224 225 226 227 229 230 231 232 234 236 237 239 240 242 244 246 248 249 251 253 254 256 258 259 260 261 262 262 262 262 261 261 261 262 263 263 264 265 266 267 268 268 269 270 270 271 272 273 274 275 276 277 279 280 281 283 284 285 285 286 287 288 288 289 290 290 290 289 287 283 277
204 206 209 211 213 214 215 217 219 221 222 222 222 223 224 225 226 227 229 231 232 234 235 237 239 240 242 244 245 247 249 251 252 253 255 257 259 261 262 263 263 263 263 262 262 262 262 263 263 264 264 265 266 267 267 268 269 269 270 271 272 273 274 275 276 277 279 280 281 282 283 283 284 285 286 287 287 288 288 288 288 288 286 283 278 273
205 207 210 213 215 217 217 219 220 222 223 224 224 224 225 226 227 228 230 232 234 235 237 239 241 243 244 246 248 250 252 253 255 257 259 260 262 263 264 264 263 263 263 263 263 263 263 264 264 264 265 266 267 268 268 269 270 271 272 273 273 274 275 276 278 278 279 280 281 282 283 284 284 285 286 286 287 287 287 287 286 284 282 279 275 270
205 208 212 214 216 218 219 220 221 222 224 225 226 226 227 228 229 231 233 234 236 238 240 241 243 245 246 248 250 252 253 255 257 259 261 262 263 263 263 263 263 264 264 264 264 265 265 265 265 266 266 267 268 268 269 270 271 272 273 274 274 275 276 277 278 279 280 281 282 283 283 284 285 285 286 286 286 286 286 285 283 281 278 276 273 269
207 210 213 216 217 219 221 222 223 224 225 227 229 230 231 232 233 235 236 238 239 241 243 244 246 248 249 251 253 254 256 258 259 260 261 261 261 261 261 262 263 264 265 265 266 266 266 267 267 267 268 268 269 270 270 271 272 273 274 275 275 276 277 278 279 280 281 281 282 283 284 284 285 285 286 286 286 285 284 282 281 278 276 273 271 269
210 213 216 219 221 222 225 227 228 228 229 230 231 233 235 236 237 238 239 241 242 244 245 247 249 251 253 254 256 257 258 258 258 258 258 259 260 260 261 261 263 264 265 266 267 267 268 268 269 269 270 270 271 271 272 273 273 274 275 276 277 278 279 279 280 281 281 282 282 283 283 284 285 285 285 285 285 284 283 281 279 277 275 273 270 268
214 216 219 222 224 226 228 230 231 232 232 233 234 235 237 238 240 241 242 244 245 247 249 251 252 254 255 256 256 256 256 256 256 257 258 259 260 261 261 262 263 264 265 266 267 268 268 269 270 270 271 272 273 273 274 275 276 276 277 278 278 279 280 280 281 281 282 282 283 283 284 284 284 284 284 284 283 282 282 281 279 277 275 273 271 268
217 219 222 224 226 228 230 232 233 235 236 237 239 240 242 243 244 246 247 249 250 251 252 253 253 254 254 254 254 254 255 256 257 258 259 259 260 261 262 263 264 265 266 266 267 268 269 269 270 271 272 273 274 275 276 276 277 278 278 279 279 280 281 281 282 282 283 283 284 284 284 284 284 283 283 283 282 282 281 280 279 278 275 273 271 268
Height
10599 10604 10612 10619 10622 10624 10625 10627 10633 10632 10633 10639 10643 10647 10651 10656 10660 10659 10667 10681 10681 10678 10685 10683 10678 10684 10688 10698 10713 10714 10713 10715 10714 10716 10724 10731 10733 10736 10744 10749 10752 10754 10754 10756 10753 10750 10751 10753 10756 10758 10759 10760 10762 10764 10767 10770 10770 10769 10770 10769 10769 10770 10770 10770 10770 10769 10768 10767 10766 10766 10766 10766 10765 10763 10762 10761 10760 10760 10759 10759 10757 10756 10755 10755 10756 10756
10594 10602 10610 10613 10613 10615 10617 10620 10624 10625 10627 10633 10637 10642 10645 10649 10654 10655 10660 10674 10677 10672 10676 10677 10675 10679 10683 10693 10705 10706 10709 10710 10706 10709 10717 10723 10727 10731 10739 10744 10747 10749 10750 10750 10747 10744 10746 10747 10749 10752 10754 10756 10756 10759 10762 10764 10765 10764 10764 10764 10764 10765 10766 10766 10765 10764 10763 10762 10762 10762 10763 10763 10761 10760 10759 10758 10756 10755 10756 10756 10755 10753 10752 10751 10752 10752
10592 10601 10604 10603 10604 10606 10610 10614 10618 10619 10621 10627 10631 10636 10640 10643 10649 10652 10653 10664 10672 10669 10669 10673 10671 10671 10677 10687 10698 10703 10705 10701 10699 10706 10712 10715 10721 10728 10737 10741 10742 10743 10743 10744 10743 10741 10742 10742 10744 10747 10749 10750 10751 10753 10756 10758 10759 10759 10759 10759 10759 10760 10761 10761 10760 10759 10759 10758 10758 10758 10758 10758 10757 10756 10755 10753 10751 10749 10750 10751 10750 10749 10748 10747 10747 10747
10589 10595 10594 10593 10595 10599 10604 10609 10612 10613 10614 10621 10626 10630 10635 10638 10645 10648 10645 10654 10667 10666 10663 10667 10663 10661 10673 10685 10693 10697 10696 10694 10696 10701 10704 10708 10717 10727 10734 10738 10736 10735 10737 10738 10738 10737 10738 10739 10740 10742 10743 10745 10746 10748 10750 10752 10753 10754 10754 10754 10754 10754 10755 10756 10755 10755 10754 10754 10754 10755 10754 10754 10753 10752 10751 10749 10747 10744 10744 10745 10745 10743 10743 10742 10742 10742
10582 10585 10582 10584 10589 10593 10598 10603 10606 10607 10610 10616 10620 10626 10631 10634 10639 10639 10637 10648 10660 10660 10656 10658 10656 10656 10671 10683 10687 10689 10689 10690 10691 10694 10699 10705 10715 10724 10730 10732 10729 10729 10733 10733 10733 10733 10734 10734 10734 10736 10737 10739 10742 10743 10745 10746 10747 10749 10749 10750 10750 10750 10750 10751 10750 10750 10749 10750 10750 10751 10750 10749 10748 10747 10746 10745 10742 10740 10739 10740 10739 10738 10737 10737 10737 10737
10573 10575 10575 10580 10584 10588 10593 10596 10600 10602 10604 10611 10615 10623 10626 10626 10632 10629 10630 10644 10651 10654 10654 10651 10652 10656 10668 10678 10680 10683 10684 10684 10686 10689 10697 10703 10710 10718 10724 10726 10724 10726 10728 10726 10727 10729 10729 10728 10729 10730 10732 10734 10737 10738 10740 10741 10742 10743 10743 10744 10745 10745 10746 10746 10746 10745 10745 10746 10746 10746 10745 10744 10744 10742 10741 10740 10738 10735 10733 10733 10733 10732 10731 10731 10732 10732
10566 10569 10572 10575 10579 10583 10587 10591 10597 10597 10599 10607 10613 10618 10617 10619 10628 10623 10624 10640 10644 10649 10651 10645 10648 10654 10662 10671 10674 10678 10679 10679 10684 10687 10692 10699 10705 10711 10717 10721 10720 10720 10719 10719 10722 10724 10724 10723 10723 10725 10727 10730 10731 10733 10735 10736 10737 10737 10738 10739 10739 10740 10741 10740 10741 10741 10741 10742 10742 10742 10741 10740 10739 10738 10737 10735 10733 10730 10727 10726 10726 10726 10725 10725 10726 10727
10560 10563 10566 10570 10574 10578 10581 10587 10594 10592 10593 10604 10608 10609 10610 10614 10623 10615 10617 10635 10639 10642 10644 10640 10646 10650 10655 10664 10668 10673 10674 10675 10682 10683 10687 10696 10701 10705 10711 10715 10716 10713 10711 10712 10717 10719 10719 10718 10718 10720 10723 10725 10727 10728 10729 10730 10731 10732 10733 10734 10734 10735 10735 10735 10735 10736 10737 10737 10737 10737 10737 10735 10734 10733 10732 10730 10728 10726 10722 10720 10720 10719 10718 10718 10720 10721
10552 10555 10560 10565 10567 10572 10578 10582 10585 10584 10589 10600 10601 10602 10604 10607 10612 10608 10611 10627 10631 10634 10637 10637 10643 10645 10650 10658 10661 10666 10669 10673 10679 10680 10684 10692 10696 10700 10705 10707 10708 10705 10704 10708 10711 10713 10713 10714 10715 10716 10719 10720 10721 10722 10723 10724 10725 10727 10728 10728 10729 10729 10729 10730 10731 10731 10732 10732 10732 10732 10731 10730 10728 10727 10726 10724 10723 10721 10717 10714 10712 10712 10711 10711 10712 10713
10543 10550 10552 10557 10561 10565 10571 10573 10574 10580 10587 10594 10593 10594 10597 10599 10604 10605 10608 10618 10623 10629 10634 10635 10640 10642 10646 10652 10655 10660 10667 10672 10676 10678 10683 10688 10691 10696 10699 10700 10699 10698 10699 10703 10705 10707 10707 10709 10711 10711 10713 10715 10716 10717 10718 10719 10720 10722 10723 10723 10723 10724 10724 10725 10726 10727 10727 10727 10727 10726 10725 10724 10723 10721 10719 10718 10717 10715 10713 10708 10705 10704 10704 10704 10704 10705
10539 10543 10544 10551 10556 10559 10563 10566 10570 10577 10582 10583 10582 10585 10590 10594 10599 10600 10601 10608 10615 10626 10634 10633 10636 10639 10640 10645 10650 10657 10663 10667 10673 10677 10680 10683 10687 10690 10692 10692 10692 10691 10694 10696 10699 10701 10702 10704 10706 10706 10708 10709 10710 10711 10712 10713 10715 10716 10717 10717 10717 10718 10719 10720 10721 10721 10722 10721 10721 10720 10720 10719 10717 10715 10713 10711 10710 10709 10707 10704 10700 10697 10696 10697 10697 10698
10533 10537 10540 10547 10552 10553 10558 10563 10565 10570 10574 10571 10573 10580 10585 10588 10591 10592 10594 10601 10612 10627 10633 10629 10630 10634 10635 10639 10647 10653 10654 10661 10671 10675 10675 10678 10680 10682 10684 10685 10685 10686 10688 10690 10693 10695 10697 10699 10701 10702 10704 10705 10705 10705 10706 10708 10709 10710 10712 10712 10712 10713 10714 10715 10716 10716 10716 10716 10715 10715 10715 10713 10711 10709 10706 10704 10703 10702 10700 10698 10695 10692 10690 10690 10690 10691
10526 10532 10535 10539 10545 10548 10553 10557 10557 10561 10566 10564 10566 10574 10578 10580 10585 10588 10592 10601 10615 10627 10629 10625 10625 10629 10629 10633 10642 10646 10649 10660 10670 10670 10669 10671 10673 10675 10678 10679 10679 10681 10683 10685 10687 10689 10692 10694 10695 10697 10699 10700 10700 10700 10701 10702 10704 10705 10706 10706 10707 10708 10709 10710 10710 10711 10710 10710 10710 10709 10709 10708 10706 10703 10701 10699 10697 10695 10694 10692 10690 10687 10685 10684 10684 10684
10519 10524 10526 10531 10541 10545 10546 10548 10550 10556 10560 10559 10563 10570 10575 10579 10584 10589 10593 10603 10615 10621 10622 10620 10618 10620 10624 10629 10638 10644 10651 10660 10663 10661 10661 10664 10666 10669 10672 10673 10674 10676 10677 10679 10681 10683 10686 10688 10690 10692 10693 10695 10695 10695 10696 10697 10699 10700 10701 10702 10702 10703 10704 10704 10705 10705 10704 10704 10704 10704 10703 10702 10700 10698 10695 10693 10691 10690 10688 10686 10684 10682 10680 10678 10677 10676
10511 10515 10521 10530 10538 10539 10538 10541 10546 10552 10555 10556 10561 10567 10573 10578 10583 10589 10594 10601 10609 10612 10613 10611 10608 10613 10621 10627 10635 10642 10649 10654 10652 10652 10655 10658 10662 10665 10667 10668 10669 10671 10672 10673 10675 10677 10680 10682 10684 10686 10688 10689 10689 10689 10691 10692 10693 10694 10695 10697 10697 10698 10698 10698 10699 10699 10699 10699 10698 10698 10697 10695 10694 10692 10690 10687 10685 10684 10682 10680 10678 10676 10674 10672 10670 10670
10507 10512 10518 10524 10528 10529 10531 10535 10538 10542 10546 10551 10554 10559 10570 10578 10581 10585 10588 10592 10597 10601 10604 10602 10602 10613 10621 10625 10632 10637 10643 10647 10645 10647 10651 10654 10658 10660 10662 10664 10664 10666 10667 10667 10669 10671 10673 10676 10678 10680 10682 10683 10683 10684 10686 10687 10688 10689 10690 10691 10692 10692 10693 10693 10693 10693 10693 10693 10693 10692 10691 10689 10688 10686 10684 10682 10680 10678 10676 10674 10672 10669 10667 10665 10663 10663
10504 10507 10510 10515 10520 10522 10525 10527 10529 10535 10543 10544 10547 10559 10572 10576 10574 10576 10581 10585 10589 10595 10599 10597 10601 10613 10618 10621 10628 10633 10637 10640 10641 10643 10647 10649 10653 10654 10656 10657 10659 10660 10660 10661 10663 10665 10668 10670 10672 10674 10676 10676 10677 10679 10681 10682 10683 10683 10684 10686 10686 10687 10687 10687 10687 10687 10688 10687 10687 10686 10685 10684 10682 10680 10679 10677 10674 10672 10670 10668 10665 10662 10659 10657 10656 10655
10496 10497 10499 10508 10514 10516 10518 10519 10521 10531 10536 10537 10548 10562 10566 10563 10564 10569 10576 10580 10584 10591 10595 10594 10600 10609 10614 10618 10624 10628 10631 10634 10637 10639 10641 10644 10647 10649 10650 10651 10653 10654 10655 10656 10658 10660 10663 10664 10666 10668 10670 10670 10672 10673 10675 10676 10677 10678 10679 10680 10680 10681 10681 10682 10682 10682 10682 10682 10681 10680 10679 10678 10677 10675 10673 10671 10668 10666 10663 10661 10659 10655 10652 10650 10648 10647
10487 10487 10491 10501 10506 10506 10510 10511 10515 10525 10530 10536 10548 10553 10552 10555 10561 10567 10573 10577 10582 10589 10591 10592 10598 10605 10609 10615 10619 10621 10624 10627 10630 10632 10634 10638 10641 10642 10644 10645 10646 10647 10648 10650 10652 10655 10657 10658 10660 10662 10664 10665 10666 10668 10670 10671 10672 10673 10673 10674 10675 10675 10676 10676 10676 10676 10676 10676 10675 10674 10673 10672 10671 10669 10667 10665 10662 10660 10657 10655 10652 10649 10646 10643 10641 10641
10480 10481 10486 10495 10497 10496 10500 10504 10512 10523 10530 10535 10540 10541 10545 10555 10559 10563 10570 10574 10579 10585 10587 10590 10596 10599 10603 10609 10611 10614 10617 10621 10624 10626 10628 10631 10633 10635 10637 10639 10640 10641 10643 10645 10647 10649 10651 10653 10655 10657 10658 10660 10661 10662 10664 10665 10666 10667 10668 10668 10669 10670 10670 10670 10670 10670 10670 10670 10669 10668 10667 10666 10664 10663 10661 10659 10657 10655 10652 10649 10646 10643 10640 10637 10635 10634
10473 10475 10480 10488 10490 10491 10499 10508 10515 10524 10529 10531 10535 10539 10546 10552 10555 10559 10565 10570 10575 10579 10582 10586 10589 10591 10597 10603 10606 10608 10613 10616 10619 10621 10622 10625 10627 10629 10632 10633 10634 10636 10638 10640 10642 10643 10645 10647 10649 10651 10653 10654 10655 10657 10659 10660 10661 10661 10662 10663 10664 10664 10664 10664 10664 10665 10664 10664 10663 10662 10662 10660 10658 10657 10656 10654 10652 10650 10647 10644 10641 10637 10634 10631 10629 10627
10467 10469 10475 10484 10488 10494 10506 10512 10513 10519 10524 10527 10531 10538 10545 10550 10552 10556 10561 10566 10570 10573 10577 10580 10581 10585 10593 10599 10601 10604 10608 10611 10613 10615 10617 10619 10622 10624 10626 10628 10629 10631 10633 10634 10636 10637 10639 10641 10643 10645 10648 10649 10650 10651 10653 10654 10655 10655 10657 10657 10658 10658 10657 10658 10659 10659 10658 10658 10657 10657 10656 10654 10653 10652 10650 10649 10647 10645 10642 10639 10635 10632 10629 10625 10623 10621
10462 10465 10473 10483 10489 10496 10504 10506 10507 10513 10518 10520 10526 10532 10538 10543 10546 10551 10557 10562 10566 10569 10572 10573 10575 10582 10591 10596 10599 10600 10602 10605 10607 10609 10611 10613 10616 10619 10621 10623 10624 10626 10627 10628 10630 10632 10633 10636 10638 10640 10642 10643 10644 10645 10647 10648 10649 10650 10651 10651 10651 10652 10651 10652 10653 10653 10653 10652 10651 10651 10650 10649 10648 10646 10645 10643 10641 10639 10636 10633 10630 10626 10623 10620 10617 10615
10456 10462 10471 10480 10485 10489 10494 10497 10500 10506 10511 10516 10523 10527 10531 10537 10542 10548 10553 10555 10558 10562 10564 10565 10570 10579 10586 10594 10599 10597 10596 10599 10601 10603 10606 10609 10612 10614 10616 10618 10619 10620 10622 10623 10624 10626 10628 10630 10633 10635 10637 10638 10638 10639 10640 10642 10643 10643 10644 10645 10645 10646 10646 10647 10647 10647 10647 10646 10646 10645 10644 10644 10642 10641 10639 10638 10635 10633 10631 10628 10625 10621 10618 10615 10613 10610
10456 10462 10469 10476 10480 10483 10488 10493 10497 10504 10510 10516 10522 10525 10530 10536 10539 10542 10545 10546 10549 10555 10558 10559 10565 10573 10579 10586 10590 10590 10589 10592 10594 10597 10602 10604 10606 10609 10611 10613 10614 10615 10617 10617 10619 10621 10622 10625 10627 10629 10631 10632 10632 10633 10634 10636 10637 10638 10638 10639 10639 10640 10640 10641 10641 10641 10641 10640 10640 10639 10639 10638 10637 10635 10634 10632 10630 10628 10626 10623 10620 10616 10613 10610 10608 10605
10454 10460 10465 10471 10477 10483 10491 10498 10503 10507 10511 10516 10521 10524 10528 10533 10534 10536 10539 10541 10547 10554 10556 10555 10561 10570 10575 10578 10581 10582 10584 10587 10590 10593 10597 10599 10601 10604 10606 10607 10609 10610 10611 10612 10613 10615 10617 10619 10621 10623 10625 10625 10626 10627 10629 10630 10631 10632 10632 10633 10633 10634 10634 10635 10635 10635 10635 10634 10634 10633 10633 10632 10631 10630 10628 10626 10625 10623 10621 10618 10615 10612 10608 10605 10603 10600
10452 10458 10463 10469 10476 10483 10490 10495 10499 10502 10505 10511 10517 10521 10524 10527 10530 10532 10535 10540 10547 10552 10550 10551 10559 10567 10571 10572 10574 10577 10580 10583 10586 10589 10591 10594 10596 10599 10600 10602 10603 10604 10605 10606 10608 10609 10611 10613 10615 10617 10618 10619 10620 10621 10623 10624 10625 10626 10626 10627 10627 10628 10628 10629 10630 10630 10629 10629 10628 10627 10627 10626 10625 10624 10622 10621 10619 10617 10616 10614 10611 10608 10604 10600 10598 10596
10451 10456 10462 10468 10476 10481 10486 10490 10493 10497 10502 10507 10511 10514 10518 10522 10526 10528 10534 10540 10542 10541 10541 10547 10556 10562 10566 10568 10570 10573 10576 10578 10582 10585 10587 10589 10591 10594 10596 10597 10598 10599 10600 10601 10602 10604 10605 10607 10609 10610 10612 10613 10614 10616 10617 10618 10619 10619 10620 10621 10621 10622 10622 10623 10623 10624 10623 10622 10622 10621 10621 10620 10619 10618 10617 10615 10613 10612 10611 10609 10606 10604 10600 10596 10593 10591
10448 10454 10461 10468 10474 10478 10483 10487 10491 10495 10499 10502 10505 10509 10512 10517 10521 10524 10529 10532 10528 10528 10535 10545 10552 10557 10561 10563 10565 10569 10572 10574 10576 10580 10583 10585 10587 10589 10591 10592 10593 10594 10595 10596 10597 10598 10600 10602 10603 10604 10606 10607 10609 10610 10611 10612 10612 10613 10614 10615 10616 10616 10616 10617 10617 10618 10617 10616 10616 10615 10614 10613 10613 10612 10611 10609 10608 10607 10605 10604 10601 10599 10597 10593 10589 10587
10446 10452 10460 10465 10469 10474 10479 10482 10486 10491 10494 10497 10501 10503 10506 10511 10513 10513 10516 10518 10518 10525 10536 10543 10548 10553 10555 10558 10561 10564 10567 10569 10572 10575 10579 10581 10583 10584 10585 10586 10587 10589 10590 10591 10591 10592 10594 10596 10597 10599 10600 10601 10603 10604 10605 10606 10606 10606 10608 10609 10610 10610 10610 10611 10611 10611 10611 10611 10610 10609 10608 10607 10606 10606 10605 10603 10602 10601 10600 10598 10596 10594 10593 10590 10586 10583
10442 10449 10457 10461 10465 10469 10473 10476 10480 10484 10487 10490 10493 10496 10499 10503 10502 10502 10509 10515 10520 10529 10536 10539 10545 10549 10552 10554 10556 10558 10561 10564 10567 10571 10574 10576 10577 10579 10580 10581 10582 10583 10584 10584 10585 10587 10589 10590 10592 10593 10594 10595 10597 10598 10599 10600 10600 10600 10601 10603 10604 10604 10605 10605 10605 10605 10605 10604 10603 10603 10602 10601 10600 10600 10599 10598 10596 10595 10594 10592 10591 10589 10588 10586 10583 10579
10440 10447 10453 10457 10461 10465 10468 10472 10476 10478 10481 10484 10487 10489 10493 10494 10495 10501 10511 10518 10523 10527 10531 10535 10540 10545 10547 10549 10551 10553 10556 10560 10563 10565 10568 10570 10572 10573 10574 10576 10577 10577 10578 10579 10580 10581 10583 10584 10586 10587 10588 10589 10591 10592 10593 10594 10595 10595 10595 10596 10597 10598 10599 10599 10598 10598 10598 10598 10597 10596 10595 10595 10594 10594 10593 10592 10591 10589 10588 10587 10585 10584 10583 10582 10579 10576
10438 10444 10449 10453 10458 10460 10464 10469 10472 10474 10477 10481 10483 10487 10491 10494 10499 10508 10515 10518 10520 10523 10527 10530 10534 10538 10541 10544 10546 10548 10552 10555 10558 10560 10563 10566 10568 10569 10569 10570 10571 10572 10572 10573 10574 10576 10577 10578 10580 10581 10582 10583 10585 10586 10587 10589 10590 10590 10590 10590 10591 10592 10593 10592 10591 10591 10591 10591 10591 10590 10589 10588 10588 10587 10586 10586 10585 10584 10582 10581 10580 10579 10577 10576 10575 10572
10434 10440 10444 10448 10453 10456 10462 10468 10469 10470 10474 10479 10482 10485 10489 10494 10500 10506 10510 10512 10515 10519 10522 10525 10528 10532 10536 10539 10541 10544 10548 10550 10553 10556 10559 10561 10563 10563 10564 10565 10565 10566 10566 10567 10568 10570 10571 10572 10573 10575 10576 10577 10579 10580 10581 10583 10584 10584 10584 10584 10584 10585 10586 10586 10585 10584 10584 10584 10584 10583 10582 10581 10581 10580 10580 10579 10579 10578 10577 10575 10574 10574 10572 10571 10570 10568
10430 10435 10440 10445 10449 10454 10460 10464 10465 10468 10472 10477 10481 10482 10486 10492 10495 10498 10501 10505 10510 10514 10517 10521 10524 10528 10532 10535 10537 10541 10544 10546 10549 10552 10554 10556 10557 10558 10559 10559 10560 10560 10560 10561 10562 10564 10565 10566 10567 10569 10570 10572 10573 10574 10575 10576 10577 10578 10578 10578 10578 10578 10579 10579 10578 10577 10577 10577 10576 10576 10576 10575 10574 10574 10573 10573 10572 10571 10570 10569 10569 10568 10567 10565 10564 10563
10426 10431 10436 10442 10446 10451 10457 10460 10463 10466 10470 10475 10478 10481 10484 10487 10489 10492 10497 10502 10506 10510 10514 10518 10521 10525 10528 10531 10534 10536 10539 10542 10544 10546 10548 10550 10551 10552 10553 10553 10554 10554 10555 10555 10556 10557 10559 10560 10561 10563 10564 10566 10567 10568 10569 10569 10570 10571 10572 10572 10572 10572 10572 10572 10571 10570 10570 10570 10569 10569 10568 10568 10567 10567 10566 10566 10565 10565 10564 10563 10562 10562 10561 10560 10558 10557
10424 10428 10433 10439 10444 10450 10454 10457 10460 10464 10467 10472 10476 10479 10481 10484 10487 10492 10497 10500 10504 10507 10510 10514 10517 10520 10523 10526 10529 10531 10533 10536 10539 10541 10543 10544 10545 10546 10547 10547 10548 10548 10549 10549 10550 10551 10552 10553 10555 10556 10558 10560 10560 10561 10562 10563 10564 10565 10565 10565 10565 10565 10565 10565 10564 10563 10563 10563 10562 10562 10561 10561 10561 10560 10559 10558 10558 10558 10558 10557 10556 10555 10554 10553 10552 10551
10424 10428 10432 10437 10442 10447 10450 10454 10457 10461 10464 10468 10473 10476 10479 10482 10486 10490 10493 10496 10500 10503 10506 10509 10512 10515 10518 10521 10524 10526 10529 10532 10534 10535 10536 10538 10539 10540 10541 10541 10542 10543 10543 10543 10544 10545 10545 10546 10548 10550 10552 10553 10553 10554 10555 10556 10557 10557 10557 10558 10558 10558 10558 10558 10557 10556 10556 10555 10555 10555 10554 10554 10553 10553 10552 10551 10550 10550 10550 10550 10549 10548 10547 10547 10545 10544
10424 10429 10433 10437 10441 10445 10448 10451 10455 10458 10462 10466 10470 10474 10476 10480 10484 10487 10490 10493 10497 10499 10502 10505 10508 10511 10514 10517 10520 10523 10526 10527 10527 10528 10531 10532 10533 10534 10535 10536 10536 10537 10537 10537 10538 10539 10539 10540 10542 10545 10546 10546 10546 10548 10549 10550 10550 10550 10550 10551 10550 10550 10551 10551 10549 10549 10548 10548 10547 10547 10547 10546 10546 10545 10544 10543 10542 10542 10542 10542 10542 10541 10540 10539 10538 10537
10422 10428 10433 10436 10439 10443 10446 10449 10453 10457 10459 10461 10466 10469 10473 10478 10481 10484 10489 10492 10494 10496 10499 10502 10504 10507 10510 10513 10516 10518 10520 10520 10521 10523 10526 10527 10527 10528 10528 10529 10530 10530 10530 10531 10532 10533 10533 10534 10536 10538 10538 10538 10540 10541 10542 10543 10543 10543 10543 10544 10543 10542 10543 10543 10542 10541 10541 10541 10540 10539 10539 10538 10538 10538 10537 10535 10534 10533 10533 10533 10533 10533 10532 10532 10531 10530
10421 10426 10430 10433 10437 10440 10444 10447 10451 10454 10455 10457 10462 10466 10470 10474 10478 10483 10488 10489 10490 10492 10495 10497 10500 10503 10505 10508 10509 10511 10512 10513 10515 10518 10519 10520 10521 10522 10522 10523 10524 10524 10524 10524 10525 10526 10527 10528 10530 10531 10532 10533 10534 10535 10535 10536 10535 10535 10536 10537 10535 10534 10535 10536 10536 10534 10533 10533 10532 10531 10531 10530 10530 10530 10529 10528 10526 10525 10524 10523 10524 10524 10524 10523 10523 10522
10419 10423 10427 10430 10433 10437 10440 10443 10447 10449 10451 10455 10459 10462 10466 10471 10477 10482 10483 10483 10484 10488 10490 10492 10495 10497 10499 10500 10502 10503 10506 10508 10510 10512 10513 10514 10515 10516 10516 10517 10517 10518 10518 10519 10520 10520 10521 10522 10523 10524 10525 10527 10527 10528 10528 10528 10528 10528 10528 10529 10528 10527 10527 10529 10528 10526 10525 10524 10524 10523 10523 10522 10521 10521 10520 10520 10518 10517 10515 10514 10513 10514 10514 10514 10514 10513
10418 10421 10423 10425 10428 10432 10436 10439 10442 10444 10447 10452 10455 10459 10464 10469 10473 10476 10476 10476 10479 10482 10484 10487 10489 10491 10493 10495 10496 10499 10501 10503 10504 10506 10507 10508 10509 10510 10510 10510 10511 10512 10512 10513 10513 10514 10515 10515 10516 10517 10519 10520 10521 10521 10521 10521 10521 10520 10520 10521 10521 10520 10519 10520 10520 10518 10516 10516 10515 10514 10514 10514 10513 10512 10511 10511 10510 10508 10507 10505 10503 10503 10504 10505 10505 10504
10415 10417 10419 10422 10425 10428 10432 10435 10437 10440 10445 10449 10453 10457 10462 10465 10467 10469 10470 10472 10474 10477 10481 10483 10485 10486 10488 10491 10492 10494 10495 10497 10499 10500 10501 10502 10503 10503 10503 10504 10505 10506 10506 10506 10507 10507 10508 10509 10510 10511 10512 10513 10514 10514 10513 10514 10513 10512 10512 10512 10512 10512 10511 10510 10511 10510 10508 10507 10506 10505 10504 10504 10504 10502 10502 10501 10501 10500 10498 10496 10494 10493 10494 10495 10495 10495
10412 10415 10417 10420 10422 10425 10429 10432 10436 10439 10443 10447 10451 10455 10458 10460 10462 10464 10466 10468 10471 10474 10477 10478 10480 10482 10484 10486 10487 10489 10490 10491 10492 10493 10494 10495 10496 10497 10497 10497 10498 10499 10499 10500 10500 10501 10502 10503 10504 10504 10505 10505 10506 10506 10506 10506 10505 10504 10504 10504 10504 10503 10502 10501 10501 10501 10499 10498 10497 10496 10495 10494 10494 10493 10492 10491 10491 10490 10488 10487 10485 10484 10483 10484 10485 10486
10410 10413 10416 10418 10421 10425 10429 10431 10435 10438 10441 10444 10448 10451 10454 10456 10458 10460 10462 10464 10467 10469 10471 10473 10475 10477 10479 10480 10482 10483 10484 10485 10486 10487 10488 10489 10490 10490 10490 10491 10491 10492 10492 10493 10494 10495 10496 10497 10497 10497 10498 10498 10498 10498 10499 10498 10497 10496 10496 10496 10495 10495 10493 10492 10492 10491 10490 10489 10487 10486 10485 10484 10483 10483 10482 10481 10480 10479 10478 10476 10476 10475 10474 10474 10475 10477
10409 10412 10414 10417 10421 10424 10426 10429 10432 10435 10438 10441 10444 10447 10449 10451 10453 10456 10458 10460 10462 10464 10466 10468 10470 10471 10473 10474 10476 10477 10478 10479 10480 10481 10482 10483 10483 10483 10484 10485 10485 10485 10485 10487 10488 10489 10490 10490 10490 10490 10491 10491 10490 10490 10491 10490 10489 10488 10488 10487 10487 10486 10485 10484 10483 10482 10481 10479 10478 10476 10475 10474 10472 10471 10470 10469 10469 10468 10466 10465 10465 10465 10464 10464 10464 10466
10408 10411 10413 10416 10419 10421 10423 10425 10429 10433 10436 10438 10440 10443 10445 10447 10450 10452 10454 10455 10457 10459 10461 10462 10464 10466 10467 10469 10470 10471 10472 10473 10473 10474 10475 10476 10477 10478 10478 10479 10479 10479 10480 10481 10482 10482 10483 10483 10483 10483 10483 10483 10483 10482 10482 10482 10481 10480 10479 10479 10478 10477 10476 10475 10474 10472 10471 10470 10468 10466 10464 10463 10461 10459 10458 10457 10456 10456 10455 10454 10454 10454 10454 10454 10454 10455
10407 10410 10412 10414 10417 10419 10422 10424 10428 10431 10433 10435 10437 10439 10441 10443 10446 10447 10449 10451 10452 10454 10455 10457 10459 10460 10462 10463 10464 10465 10466 10466 10467 10468 10469 10470 10471 10471 10472 10473 10473 10473 10474 10475 10475 10475 10475 10475 10476 10475 10475 10475 10475 10475 10474 10474 10473 10472 10471 10470 10469 10468 10467 10465 10464 10462 10460 10459 10457 10456 10454 10452 10451 10448 10446 10444 10444 10444 10443 10442 10443 10443 10443 10444 10444 10444
10407 10409 10410 10413 10416 10418 10420 10422 10425 10427 10429 10431 10433 10435 10436 10438 10441 10443 10444 10445 10447 10448 10450 10452 10453 10454 10455 10456 10457 10458 10459 10460 10461 10462 10463 10464 10464 10465 10466 10467 10467 10467 10468 10468 10468 10468 10468 10468 10468 10467 10467 10468 10467 10467 10466 10465 10464 10463 10462 10461 10460 10458 10456 10455 10453 10451 10449 10448 10446 10444 10443 10442 10441 10439 10436 10433 10432 10432 10432 10430 10430 10431 10431 10432 10432 10432
10404 10405 10407 10410 10413 10414 10416 10418 10420 10421 10424 10426 10428 10430 10432 10434 10436 10437 10439 10440 10441 10443 10445 10446 10447 10448 10449 10450 10451 10452 10453 10454 10455 10456 10456 10457 10458 10459 10460 10461 10461 10461 10461 10461 10461 10461 10461 10460 10460 10460 10460 10460 10460 10459 10458 10457 10455 10454 10452 10451 10450 10448 10446 10444 10442 10440 10438 10436 10435 10433 10431 10430 10429 10429 10427 10423 10421 10421 10420 10418 10417 10417 10418 10419 10419 10420